Licenciado y General Ignacio Lopez Rayon Airport
MMPN : now visible

Airfield :











YOU CAN JOIN US ON...

 
LOGIN :

Register | Disclaimer

   EN    FR    IT 

 









Legend :    VFR   Marginal VFR   IFR   Intensive IFR   Very Intensive IFR
Visi :
Ceiling :
>= 8 km
>= 3000ft
5 to 8 km
1000 to 3000 ft
1500m to 5 km
500 to 1000 ft
800 to 1500m
200 to 500 ft
< 800m
< 200 ft
Symbols :   Thunderstorms  Fog  Heavy snow  Heavy precipitations  Wind > 20 kt






- Airport Elevation : 5258 ft
- IATA code : UPN


MMPN - Licenciado y General Ignacio Lopez Rayon

CURRENT METAR :
  • 262343Z 23006KT 15SM SKC 27/00 A3005 RMK HZY CI

EXPIRED METARs :
  • 262245Z 21006KT 15SM SKC 27/01 A3005 RMK HZY CI

TAF TAF MMPN
Valid from the 26 at 18:00 until the 27 at 18:00 UTC


261638Z 2618/2718 18005KT P6SM SKC
BECMG 2620/2621 18012KT SCT030
FM270200 00000KT P6SM SKC
BECMG 2712/2713 6SM HZ
MMFR FIR / North America



MET'MAP, your aeronautical weather chart ! - Copyright ORBIFLY December 2007 - Disclaimer

ORBIFLY MET'MAP TEAM :

Programming & Development : Alexandra Zaïnal
Concept & original design : Baudouin d'Aumeries
Assistance for programming : Marc-Olivier Méhu
Technical & hardware support : Manuel Goepfert

Contact : metmap@orbifly.com




SOURCES & CREDITS :

   NOAA       Earth
Advisory